GW5390 Weather Reports


time (UTC)temp
C
wind
direction
speed
KPH
gust
KPH
rain 1hr
cm
rain 24hr
cm
rain mn
cm
humidity
%
barometer
mb
20260504185547 21 197 3.2 4.8 0.00 0.00 0.00 81 1016.4
20260504185044 22 193 4.8 4.8 0.00 0.00 0.00 80 1016.5
20260504184539 22 185 3.2 3.2 0.00 0.00 0.00 79 1016.4
20260504184035 22 202 3.2 3.2 0.00 0.00 0.00 78 1016.8
20260504183532 22 191 0.0 1.6 0.00 0.00 0.00 78 1016.9
20260504183030 22 201 1.6 3.2 0.00 0.00 0.00 78 1016.9
20260504182527 22 188 0.0 1.6 0.00 0.00 0.00 78 1016.9
20260504182024 22 160 4.8 4.8 0.00 0.00 0.00 78 1017.0
20260504181521 22 173 0.0 0.0 0.00 0.00 0.00 79 1017.2
20260504181020 22 195 8.0 9.7 0.00 0.00 0.00 78 1017.0
20260504180518 22 212 4.8 4.8 0.00 0.00 0.00 79 1017.1
20260504180016 22 182 6.4 6.4 0.00 0.00 0.00 80 1017.1
20260504175513 22 188 3.2 3.2 0.00 0.00 0.00 81 1017.0
20260504175010 22 192 6.4 9.7 0.00 0.00 0.00 80 1017.0
20260504174508 22 161 9.7 12.9 0.00 0.00 0.00 80 1016.7
20260504174005 22 184 3.2 6.4 0.00 0.00 0.00 80 1017.0
20260504173501 22 186 3.2 3.2 0.00 0.00 0.00 81 1016.9
20260504172959 22 220 8.0 11.3 0.00 0.00 0.00 80 1017.0
20260504172454 22 155 6.4 9.7 0.00 0.00 0.00 80 1017.1
20260504171951 22 146 6.4 12.9 0.00 0.00 0.00 80 1017.2
20260504171448 21 189 1.6 3.2 0.00 0.00 0.00 80 1017.3
20260504170945 22 150 4.8 6.4 0.00 0.00 0.00 78 1017.4
20260504170441 22 220 3.2 3.2 0.00 0.00 0.00 78 1017.5
20260504160401 22 211 6.4 6.4 0.00 0.00 0.00 76 1018.2
20260504150825 21 181 0.0 0.0 0.00 0.00 0.00 78 1019.3
20260504150322 21 204 1.6 1.6 0.00 0.00 0.00 77 1019.1
20260504141252 23 195 6.4 6.4 0.00 0.00 0.00 72 1019.3
20260504140749 23 208 4.8 6.4 0.00 0.00 0.00 72 1019.4
20260504140244 23 288 3.2 4.8 0.00 0.00 0.00 73 1019.4
20260504130713 22 236 0.0 1.6 0.00 0.00 0.00 77 1020.0
20260504130209 21 198 0.0 1.6 0.00 0.00 0.00 79 1019.9
20260504120133 19 181 0.0 0.0 0.00 0.00 0.00 87 1019.9
20260504110600 17 182 0.0 0.0 0.00 0.00 0.00 92 1019.7
20260504100522 16 185 0.0 0.0 0.00 0.00 0.00 93 1019.2
20260504081915 16 177 0.0 0.0 0.00 0.00 0.00 92 1018.1
20260504081412 16 177 0.0 0.0 0.00 0.00 0.00 92 1018.2
20260504080908 16 177 0.0 0.0 0.00 0.00 0.00 92 1018.2
20260504080405 16 177 0.0 0.0 0.00 0.00 0.00 92 1018.1
20260504070332 16 181 0.0 0.0 0.00 0.00 0.00 92 1018.5
20260504050721 16 189 0.0 0.0 0.00 0.00 0.00 92 1019.5
20260504050218 16 189 0.0 0.0 0.00 0.00 0.00 92 1019.5
20260504045715 16 189 0.0 0.0 0.00 0.00 0.00 92 1019.6
20260504045215 16 189 0.0 0.0 0.00 0.00 0.00 92 1019.7
20260504044713 16 189 0.0 0.0 0.00 0.00 0.00 92 1019.7
20260504044210 16 189 0.0 0.0 0.00 0.00 0.00 92 1019.8
20260504043707 16 189 0.0 0.0 0.00 0.00 0.00 92 1019.7
20260504043204 16 189 0.0 0.0 0.00 0.00 0.00 92 1019.8
20260504042702 16 189 0.0 0.0 0.00 0.00 0.00 92 1019.9
20260504042158 16 189 0.0 0.0 0.00 0.00 0.00 92 1019.9
20260504041654 16 189 0.0 0.0 0.00 0.00 0.00 92 1020.1
20260504041150 16 189 0.0 0.0 0.00 0.00 0.00 92 1020.0
20260504040647 16 189 0.0 0.0 0.00 0.00 0.00 92 1020.2
20260504040144 16 189 0.0 0.0 0.00 0.00 0.00 92 1020.1
20260504035641 16 189 0.0 0.0 0.00 0.00 0.00 92 1020.1
20260504035137 16 189 0.0 0.0 0.00 0.00 0.00 92 1020.3
20260504034635 16 189 0.0 0.0 0.00 0.00 0.00 92 1020.0
20260504034132 16 189 0.0 0.0 0.00 0.00 0.00 92 1020.2
20260504033630 16 189 0.0 0.0 0.00 0.00 0.00 92 1020.2
20260504033127 16 189 0.0 0.0 0.00 0.00 0.00 92 1020.4
20260504032624 16 189 0.0 0.0 0.00 0.00 0.00 92 1020.4
20260504032120 15 189 0.0 0.0 0.00 0.00 0.00 92 1020.6
20260504031618 15 189 0.0 0.0 0.00 0.00 0.00 92 1020.6
20260504031114 16 189 0.0 0.0 0.00 0.00 0.00 92 1020.6
20260504030611 16 189 0.0 0.0 0.00 0.00 0.00 92 1020.9
20260504030108 15 189 0.0 0.0 0.00 0.00 0.00 91 1020.8
20260504025604 16 190 0.0 0.0 0.00 0.00 0.00 91 1020.7
20260504025101 16 190 0.0 0.0 0.00 0.00 0.00 91 1021.0
20260504024558 16 189 0.0 0.0 0.00 0.00 0.00 91 1021.0
20260504024055 16 189 0.0 0.0 0.00 0.00 0.00 91 1020.9
20260504023551 16 189 0.0 0.0 0.00 0.00 0.00 91 1020.8
20260504023047 16 189 0.0 0.0 0.00 0.00 0.00 91 1020.9
20260504022543 16 189 0.0 0.0 0.00 0.00 0.00 91 1021.1
20260504022040 16 189 0.0 0.0 0.00 0.00 0.00 91 1021.0
20260504021538 16 190 0.0 0.0 0.00 0.00 0.00 91 1021.0
20260504021034 16 189 0.0 0.0 0.00 0.00 0.00 91 1021.3
20260504020531 16 189 0.0 0.0 0.00 0.00 0.00 91 1021.2
20260504020028 16 189 0.0 0.0 0.00 0.00 0.00 90 1021.5
20260504015524 16 189 0.0 0.0 0.00 0.00 0.00 90 1021.3
20260504015020 16 189 0.0 0.0 0.00 0.00 0.00 90 1021.4
20260504014516 16 189 0.0 0.0 0.00 0.00 0.00 90 1021.4
20260504014014 16 189 0.0 0.0 0.00 0.00 0.00 90 1021.3
20260504013512 15 189 0.0 0.0 0.00 0.00 0.00 90 1021.5
20260504013009 16 189 0.0 0.0 0.00 0.00 0.00 90 1021.4
20260504012506 16 189 0.0 0.0 0.00 0.00 0.00 90 1021.3
20260504012004 16 189 0.0 0.0 0.00 0.00 0.00 89 1021.5
20260504011500 16 189 0.0 0.0 0.00 0.00 0.00 89 1021.5
20260504010955 16 189 0.0 0.0 0.00 0.00 0.00 89 1021.4
20260504010452 16 190 0.0 0.0 0.00 0.00 0.00 89 1021.5
20260504005948 16 189 0.0 0.0 0.00 0.00 0.00 89 1021.4
20260504005445 16 189 0.0 0.0 0.00 0.00 0.00 89 1021.5
20260504004942 16 189 0.0 0.0 0.00 0.00 0.00 88 1021.4
20260504004440 16 190 0.0 0.0 0.00 0.00 0.00 88 1021.7
20260504003937 16 189 0.0 0.0 0.00 0.00 0.00 88 1021.4
20260504003433 16 169 0.0 0.0 0.00 0.00 0.00 88 1021.5
20260504002930 16 193 0.0 0.0 0.00 0.00 0.00 88 1021.6
20260504002427 16 193 0.0 0.0 0.00 0.00 0.00 88 1021.5
20260504001924 16 194 0.0 0.0 0.00 0.00 0.00 88 1021.5
20260504001422 16 194 0.0 0.0 0.00 0.00 0.00 88 1021.4
20260504000918 16 194 0.0 0.0 0.00 0.00 0.00 88 1021.4
20260504000416 16 197 0.0 1.6 0.00 0.00 0.00 88 1021.4
20260503235912 16 188 0.0 1.6 0.00 0.00 0.00 88 1021.4
20260503235410 16 184 0.0 0.0 0.00 0.00 0.00 88 1021.6
20260503234908 16 182 0.0 0.0 0.00 0.00 0.00 87 1021.5
20260503234405 16 194 0.0 0.0 0.00 0.00 0.00 87 1021.6
20260503233903 16 193 0.0 0.0 0.00 0.00 0.00 87 1021.4
20260503233359 16 191 0.0 0.0 0.00 0.00 0.00 87 1021.5
20260503232855 16 196 0.0 0.0 0.00 0.00 0.00 87 1021.5
20260503232353 16 199 0.0 0.0 0.00 0.00 0.00 87 1021.6
20260503231850 16 179 0.0 0.0 0.00 0.00 0.00 87 1021.5
20260503231347 16 179 0.0 0.0 0.00 0.00 0.00 87 1021.6
20260503230843 15 179 0.0 0.0 0.00 0.00 0.00 86 1021.5
20260503230340 15 179 0.0 0.0 0.00 0.00 0.00 86 1021.5
20260503225838 15 179 0.0 0.0 0.00 0.00 0.00 86 1021.5
20260503225334 15 179 0.0 0.0 0.00 0.00 0.00 85 1021.6
20260503224830 15 179 0.0 0.0 0.00 0.00 0.00 85 1021.4
20260503224327 15 179 0.0 0.0 0.00 0.00 0.00 85 1021.2
20260503223825 15 179 0.0 0.0 0.00 0.00 0.00 84 1021.3
20260503223323 15 179 0.0 0.0 0.00 0.00 0.00 84 1021.3
20260503222818 15 179 0.0 0.0 0.00 0.00 0.00 84 1021.4
20260503222317 15 179 0.0 0.0 0.00 0.00 0.00 84 1021.2
20260503221815 16 179 0.0 0.0 0.00 0.00 0.00 83 1021.1
20260503221313 16 179 0.0 0.0 0.00 0.00 0.00 83 1021.2
20260503220809 16 179 0.0 0.0 0.00 0.00 0.00 83 1021.5
20260503220306 16 179 0.0 0.0 0.00 0.00 0.00 83 1021.2
20260503215802 16 179 0.0 0.0 0.00 0.00 0.00 82 1021.3
20260503215259 16 179 0.0 0.0 0.00 0.00 0.00 82 1021.3
20260503214757 16 179 0.0 0.0 0.00 0.00 0.00 81 1021.2
20260503214254 16 179 0.0 0.0 0.00 0.00 0.00 81 1021.2
20260503213752 16 179 0.0 0.0 0.00 0.00 0.00 81 1020.9
20260503213249 16 179 0.0 0.0 0.00 0.00 0.00 81 1021.0
20260503212746 16 179 0.0 0.0 0.00 0.00 0.00 80 1021.0
20260503212243 16 179 0.0 0.0 0.00 0.00 0.00 79 1021.1
20260503211741 16 179 0.0 0.0 0.00 0.00 0.00 79 1021.1
20260503211237 16 179 0.0 0.0 0.00 0.00 0.00 79 1021.2
20260503210732 16 179 0.0 0.0 0.00 0.00 0.00 78 1021.0
20260503210230 16 179 0.0 0.0 0.00 0.00 0.00 77 1021.1
20260503205725 16 179 0.0 0.0 0.00 0.00 0.00 77 1020.9
20260503205222 16 179 0.0 0.0 0.00 0.00 0.00 76 1021.1
20260503204718 16 179 0.0 0.0 0.00 0.00 0.00 76 1021.0
20260503204216 17 179 0.0 0.0 0.00 0.00 0.00 76 1020.9
20260503203713 17 179 0.0 0.0 0.00 0.00 0.00 75 1020.8
20260503203211 17 179 0.0 0.0 0.00 0.00 0.00 75 1021.1
20260503202708 18 179 0.0 0.0 0.00 0.00 0.00 75 1021.0
20260503202206 17 178 0.0 0.0 0.00 0.00 0.00 75 1021.0
20260503201703 18 180 0.0 0.0 0.00 0.00 0.00 75 1020.9
20260503201200 18 179 0.0 0.0 0.00 0.00 0.00 74 1020.8
20260503200656 18 174 0.0 1.6 0.00 0.00 0.00 74 1020.8
20260503200153 18 174 0.0 0.0 0.00 0.00 0.00 74 1021.0
20260503195650 18 174 0.0 0.0 0.00 0.00 0.00 74 1021.0
20260503195147 18 165 0.0 0.0 0.00 0.00 0.00 73 1021.0
20260503194644 18 159 1.6 1.6 0.00 0.00 0.00 73 1020.8
20260503194139 18 177 0.0 0.0 0.00 0.00 0.00 73 1021.0
20260503193637 18 167 0.0 1.6 0.00 0.00 0.00 73 1020.9
20260503193132 18 173 0.0 0.0 0.00 0.00 0.00 72 1020.9
20260503192628 19 176 0.0 0.0 0.00 0.00 0.00 73 1020.6
20260503192124 19 177 0.0 0.0 0.00 0.00 0.00 72 1021.0
20260503191621 19 164 1.6 1.6 0.00 0.00 0.00 70 1020.8
20260503191118 19 169 0.0 1.6 0.00 0.00 0.00 70 1021.0
20260503190615 19 176 0.0 0.0 0.00 0.00 0.00 70 1020.9
20260503190112 19 172 0.0 1.6 0.00 0.00 0.00 69 1021.0